Location: PSU-Greenbush Astrophysical Observatory
(37.5140°N, 94.9880°W)
Time: 09:35:47
(UTC-06:00)

Tiros 1 - All Passes

Search period start: 19 January 2020 00:00
Search period end: 29 January 2020 00:00
Orbit: 630 x 664 km, 48.4° (Epoch: 19 January)

Date Brightness Start Highest point End Pass type
(mag) Time Alt. Az. Time Alt. Az. Time Alt. Az.
19 Jan - 13:57:16 10° SSW 14:01:35 38° SE 14:05:58 10° ENE daylight
19 Jan - 15:39:12 10° W 15:43:44 46° NNW 15:48:21 10° NE daylight
19 Jan - 17:23:02 10° WNW 17:26:49 23° N 17:30:37 10° NE daylight
19 Jan - 19:06:07 10° NW 19:10:11 27° NNE 19:14:16 10° ENE visible
19 Jan - 20:48:09 10° NW 20:52:59 75° NNE 20:57:47 10° ESE visible
19 Jan - 22:31:14 10° W 22:34:48 21° SW 22:38:21 10° S night (unlit)
20 Jan - 12:43:21 10° SSE 12:45:53 15° SE 12:48:27 10° E daylight
20 Jan - 14:22:49 10° SW 14:27:31 85° SE 14:32:17 10° ENE daylight
20 Jan - 16:05:59 10° WNW 16:10:08 29° NNW 16:14:20 10° NE daylight
20 Jan - 17:49:44 10° NW 17:53:28 22° N 17:57:12 10° NE visible
20 Jan - 19:32:08 10° NW 19:36:39 39° NNE 19:41:09 10° E visible
20 Jan - 21:14:19 10° WNW 21:19:00 52° SW 21:23:39 10° SE visible
21 Jan - 13:07:20 10° SSW 13:11:34 34° SE 13:15:51 10° ENE daylight
21 Jan - 14:49:06 10° WSW 14:53:40 49° NNW 14:58:17 10° NE daylight
21 Jan - 16:32:55 10° WNW 16:36:41 23° N 16:40:31 10° NE daylight
21 Jan - 18:16:04 10° NW 18:20:04 26° NNE 18:24:06 10° ENE visible
21 Jan - 19:58:06 10° NW 20:02:54 70° NNE 20:07:42 10° ESE visible
21 Jan - 21:41:02 10° W 21:44:46 23° SW 21:48:31 10° S visible
22 Jan - 11:53:44 10° SSE 11:55:53 13° SE 11:58:03 10° E daylight
22 Jan - 13:32:47 10° SW 13:37:28 79° SE 13:42:12 10° ENE daylight
22 Jan - 15:15:51 10° W 15:20:02 30° NNW 15:24:16 10° NE daylight
22 Jan - 16:59:39 10° NW 17:03:20 22° N 17:07:03 10° NE daylight
22 Jan - 18:42:06 10° NW 18:46:33 37° NNE 18:51:00 10° E visible
22 Jan - 20:24:14 10° WNW 20:28:56 57° SW 20:33:38 10° SE visible
23 Jan - 12:17:26 10° SSW 12:21:33 31° SE 12:25:42 10° ENE daylight
23 Jan - 13:59:00 10° WSW 14:03:35 52° NNW 14:08:15 10° NE daylight
23 Jan - 15:42:47 10° WNW 15:46:35 23° N 15:50:25 10° NE daylight
23 Jan - 17:26:00 10° NW 17:29:57 25° NNE 17:33:56 10° ENE daylight
23 Jan - 19:08:04 10° NW 19:12:50 65° NNE 19:17:36 10° ESE visible
23 Jan - 20:50:51 10° W 20:54:45 25° SW 20:58:38 10° S visible
24 Jan - 11:04:16 10° SSE 11:05:54 12° SE 11:07:32 10° ESE daylight
24 Jan - 12:42:46 10° SW 12:47:25 73° SE 12:52:08 10° ENE daylight
24 Jan - 14:25:44 10° W 14:29:56 32° NNW 14:34:12 10° NE daylight
24 Jan - 16:09:33 10° NW 16:13:13 22° N 16:16:55 10° NE daylight
24 Jan - 17:52:04 10° NW 17:56:27 35° NNE 18:00:51 10° E visible
24 Jan - 19:34:09 10° WNW 19:38:53 62° SW 19:43:37 10° SE visible
25 Jan - 11:27:32 10° SSW 11:31:32 29° SE 11:35:33 10° ENE daylight
25 Jan - 13:08:56 10° WSW 13:13:31 56° NNW 13:18:11 10° NE daylight
25 Jan - 14:52:39 10° WNW 14:56:28 24° N 15:00:19 10° NE daylight
25 Jan - 16:35:57 10° NW 16:39:51 24° NNE 16:43:46 10° ENE daylight
25 Jan - 18:18:01 10° NW 18:22:45 61° NNE 18:27:30 10° ESE visible
25 Jan - 20:00:42 10° WNW 20:04:43 27° SW 20:08:45 10° S visible
26 Jan - 10:15:07 10° SE 10:15:54 10° SE 10:16:41 10° ESE daylight
26 Jan - 11:52:46 10° SW 11:57:22 67° SE 12:02:03 10° ENE daylight
26 Jan - 13:35:36 10° W 13:39:50 33° NNW 13:44:08 10° NE daylight
26 Jan - 15:19:27 10° NW 15:23:06 21° N 15:26:47 10° NE daylight
26 Jan - 17:02:01 10° NW 17:06:21 33° NNE 17:10:43 10° E daylight
26 Jan - 18:44:05 10° WNW 18:48:50 67° SW 18:53:36 10° SE visible
26 Jan - 20:29:05 10° WSW 20:30:21 11° SW 20:31:38 10° SW visible
27 Jan - 10:37:40 10° S 10:41:31 26° SE 10:45:24 10° ENE daylight
27 Jan - 12:18:51 10° WSW 12:23:27 60° NNW 12:28:07 10° NE daylight
27 Jan - 14:02:32 10° WNW 14:06:21 24° N 14:10:14 10° NE daylight
27 Jan - 15:45:53 10° NW 15:49:44 24° N 15:53:35 10° ENE daylight
27 Jan - 17:27:59 10° NW 17:32:41 57° NNE 17:37:24 10° ESE daylight
27 Jan - 19:10:33 10° WNW 19:14:42 29° SW 19:18:50 10° SSE visible
28 Jan - 11:02:46 10° SW 11:07:20 61° SE 11:11:58 10° ENE daylight
28 Jan - 12:45:29 10° W 12:49:45 34° NNW 12:54:05 10° NE daylight
28 Jan - 14:29:21 10° NW 14:32:59 21° N 14:36:38 10° NE daylight
28 Jan - 16:11:59 10° NW 16:16:15 32° NNE 16:20:33 10° E daylight
28 Jan - 17:54:01 10° WNW 17:58:47 73° SW 18:03:33 10° SE daylight
28 Jan - 19:38:27 10° WSW 19:40:21 12° SW 19:42:14 10° SSW visible
